St. Augustine, FL

9:17 AM EDT on April 27, 2017 (GMT -0400)
Saint Augustine

Weather History for KSGJ - January, 2005

Change the Weather History Date:

Monday, January 17, 2005

  Actual Average Record
Temperature  
Mean Temperature 40 °F -  
Max Temperature 46 °F 62 °F 80 °F (1974)
Min Temperature 35 °F 44 °F 23 °F (1977)
Degree Days  
Heating Degree Days 24    
Moisture  
Dew Point 30 °F    
Average Humidity 65    
Maximum Humidity 76    
Minimum Humidity 53    
Precipitation  
Precipitation 0.00 in - - ()
Sea Level Pressure  
Sea Level Pressure 30.41 in    
Wind  
Wind Speed 11 mph (NNW)    
Max Wind Speed 21 mph    
Max Gust Speed 25 mph    
Visibility 10 miles    
Events      
Averages and records for this station are not official NWS values.
T = Trace of Precipitation, MM = Missing Value Source: NWS Daily Summary

Daily Weather History Graph

Daily Weather History Graph

Search for Another Location

Airport or City:

Trip Planner

Search our weather history database for the weather conditions in past years. The results will help you decide how hot, cold, wet, or windy it might be!

Date:

Astronomy

Jan. 17, 2005 Rise Set
Actual Time 7:21 AM EST 5:49 PM EST
Civil Twilight 6:55 AM EST 6:15 PM EST
Nautical Twilight 6:26 AM EST 6:44 PM EST
Astronomical Twilight 5:57 AM EST 7:13 PM EST
Moon 12:08 PM EST (1/17) 12:40 AM EST (1/17)
Length of Visible Light 11h 19m
Length of Day
10h 28m
First Quarter, 54% of the Moon is Illuminated
Jan 17
First Quarter
Jan 25
Full
Feb 2
Last Quarter
Feb 8
New
Feb 15
First Quarter

Hourly Weather History & Observations

Time (EST) Temp. Windchill Dew Point Humidity Pressure Visibility Wind Dir Wind Speed Gust Speed Precip Events Conditions
12:15 AM 42.8 °F 39.3 °F 35.6 °F 76% 30.29 in 10.0 mi West 5.8 mph - N/A   Clear
12:35 AM 42.8 °F 39.3 °F 35.6 °F 76% 30.29 in 10.0 mi West 5.8 mph - N/A   Clear
12:55 AM 42.8 °F 39.3 °F 35.6 °F 76% 30.28 in 10.0 mi West 5.8 mph - N/A   Clear
1:15 AM 42.8 °F 38.6 °F 35.6 °F 76% 30.29 in 10.0 mi West 6.9 mph - N/A   Clear
1:35 AM 42.8 °F 38.6 °F 35.6 °F 76% 30.29 in 10.0 mi West 6.9 mph - N/A   Clear
1:55 AM 42.8 °F 38.0 °F 35.6 °F 76% 30.30 in 10.0 mi West 8.1 mph - N/A   Clear
2:15 AM 42.8 °F 38.6 °F 35.6 °F 76% 30.31 in 10.0 mi WNW 6.9 mph - N/A   Clear
2:35 AM 42.8 °F 39.3 °F 33.8 °F 70% 30.31 in 10.0 mi WNW 5.8 mph - N/A   Clear
2:55 AM 42.8 °F 38.6 °F 33.8 °F 70% 30.31 in 10.0 mi NW 6.9 mph - N/A   Clear
3:35 AM 41.0 °F 33.9 °F 33.8 °F 76% 30.32 in 10.0 mi NNW 12.7 mph - N/A   Clear
3:55 AM 42.8 °F 35.4 °F 30.2 °F 61% 30.32 in 10.0 mi NNW 15.0 mph 20.7 mph N/A   Clear
4:35 AM 39.2 °F 30.8 °F 28.4 °F 65% 30.32 in 10.0 mi NNW 15.0 mph 19.6 mph N/A   Clear
4:55 AM 39.2 °F 30.5 °F 28.4 °F 65% 30.33 in 10.0 mi NNW 16.1 mph 21.9 mph N/A   Clear
5:15 AM 39.2 °F 31.2 °F 26.6 °F 61% 30.34 in 10.0 mi NNW 13.8 mph 19.6 mph N/A   Clear
5:35 AM 39.2 °F 33.6 °F 26.6 °F 61% 30.34 in 10.0 mi NW 8.1 mph - N/A   Clear
5:55 AM 37.4 °F 29.3 °F 26.6 °F 65% 30.35 in 10.0 mi NNW 12.7 mph 20.7 mph N/A   Clear
6:15 AM 37.4 °F 27.8 °F 26.6 °F 65% 30.36 in 10.0 mi NNW 17.3 mph 20.7 mph N/A   Clear
6:35 AM 37.4 °F 28.5 °F 26.6 °F 65% 30.37 in 10.0 mi NNW 15.0 mph - N/A   Clear
6:55 AM 35.6 °F 25.9 °F 24.8 °F 65% 30.38 in 10.0 mi NNW 16.1 mph - N/A   Clear
7:15 AM 35.6 °F 27.1 °F 24.8 °F 65% 30.39 in 10.0 mi NNW 12.7 mph - N/A   Clear
7:35 AM 35.6 °F 25.9 °F 24.8 °F 65% 30.40 in 10.0 mi NNW 16.1 mph - N/A   Clear
7:55 AM 35.6 °F 27.1 °F 24.8 °F 65% 30.41 in 10.0 mi NNW 12.7 mph - N/A   Clear
8:15 AM 35.6 °F 26.2 °F 24.8 °F 65% 30.42 in 10.0 mi NNW 15.0 mph - N/A   Clear
8:35 AM 35.6 °F 26.2 °F 24.8 °F 65% 30.43 in 10.0 mi NNW 15.0 mph 25.3 mph N/A   Clear
8:55 AM 37.4 °F 28.5 °F 24.8 °F 60% 30.44 in 10.0 mi NNW 15.0 mph 23.0 mph N/A   Clear
9:15 AM 37.4 °F 28.2 °F 24.8 °F 60% 30.44 in 10.0 mi North 16.1 mph 20.7 mph N/A   Clear
9:35 AM 37.4 °F 27.8 °F 26.6 °F 65% 30.45 in 10.0 mi NNW 17.3 mph 23.0 mph N/A   Clear
9:55 AM 39.2 °F 30.5 °F 26.6 °F 61% 30.46 in 10.0 mi North 16.1 mph 21.9 mph N/A   Clear
10:15 AM 41.0 °F 32.5 °F 28.4 °F 61% 30.46 in 10.0 mi NNW 17.3 mph 23.0 mph N/A   Mostly Cloudy
10:35 AM 41.0 °F 33.5 °F 28.4 °F 61% 30.46 in 10.0 mi North 13.8 mph 19.6 mph N/A   Mostly Cloudy
10:55 AM 42.8 °F - 30.2 °F 61% 30.46 in 10.0 mi North - - N/A   Overcast
11:15 AM 42.8 °F 35.1 °F 32.0 °F 66% 30.46 in 10.0 mi North 16.1 mph 23.0 mph N/A   Overcast
11:35 AM 42.8 °F 34.0 °F 32.0 °F 66% 30.46 in 10.0 mi North 20.7 mph 24.2 mph N/A   Overcast
11:55 AM 42.8 °F 35.1 °F 33.8 °F 70% 30.45 in 10.0 mi North 16.1 mph 20.7 mph N/A   Overcast
12:15 PM 42.8 °F 35.1 °F 33.8 °F 70% 30.45 in 10.0 mi NNW 16.1 mph - N/A   Overcast
12:35 PM 42.8 °F 35.8 °F 33.8 °F 70% 30.44 in 10.0 mi NNW 13.8 mph - N/A   Overcast
12:55 PM 44.6 °F 37.4 °F 33.8 °F 66% 30.43 in 10.0 mi NNW 16.1 mph 24.2 mph N/A   Overcast
1:15 PM 44.6 °F 37.8 °F 33.8 °F 66% 30.43 in 10.0 mi NNW 15.0 mph 21.9 mph N/A   Overcast
1:35 PM 44.6 °F 37.4 °F 33.8 °F 66% 30.42 in 10.0 mi North 16.1 mph 21.9 mph N/A   Overcast
1:55 PM 44.6 °F 38.1 °F 33.8 °F 66% 30.41 in 10.0 mi North 13.8 mph - N/A   Overcast
2:15 PM 44.6 °F 37.2 °F 33.8 °F 66% 30.41 in 10.0 mi North 17.3 mph - N/A   Overcast
2:35 PM 46.4 °F 40.4 °F 33.8 °F 62% 30.41 in 10.0 mi North 13.8 mph 18.4 mph N/A   Overcast
2:55 PM 46.4 °F 40.1 °F 33.8 °F 62% 30.42 in 10.0 mi North 15.0 mph 19.6 mph N/A   Mostly Cloudy
3:15 PM 44.6 °F 38.1 °F 32.0 °F 61% 30.42 in 10.0 mi North 13.8 mph - N/A   Scattered Clouds
3:35 PM 46.4 °F 39.8 °F 32.0 °F 57% 30.42 in 10.0 mi NNE 16.1 mph 19.6 mph N/A   Scattered Clouds
3:55 PM 46.4 °F 40.4 °F 32.0 °F 57% 30.43 in 10.0 mi North 13.8 mph 20.7 mph N/A   Scattered Clouds
4:15 PM 46.4 °F 40.7 °F 30.2 °F 53% 30.42 in 10.0 mi North 12.7 mph - N/A   Clear
4:35 PM 46.4 °F 41.1 °F 30.2 °F 53% 30.42 in 10.0 mi NNE 11.5 mph - N/A   Clear
4:55 PM 44.6 °F 38.4 °F 28.4 °F 53% 30.43 in 10.0 mi NNE 12.7 mph - N/A   Clear
5:15 PM 44.6 °F 39.2 °F 28.4 °F 53% 30.44 in 10.0 mi NNE 10.4 mph - N/A   Clear
5:35 PM 44.6 °F 39.7 °F 28.4 °F 53% 30.45 in 10.0 mi North 9.2 mph - N/A   Clear
5:55 PM 42.8 °F - 28.4 °F 57% 30.45 in 10.0 mi North - - N/A   Clear
6:15 PM 42.8 °F - 28.4 °F 57% 30.45 in 10.0 mi North - - N/A   Clear
6:35 PM 42.8 °F 39.3 °F 28.4 °F 57% 30.45 in 10.0 mi NNW 5.8 mph - N/A   Clear
6:55 PM 41.0 °F 37.1 °F 28.4 °F 61% 30.46 in 10.0 mi NNW 5.8 mph - N/A   Clear
7:15 PM 41.0 °F 37.1 °F 28.4 °F 61% 30.47 in 10.0 mi NNW 5.8 mph - N/A   Clear
7:35 PM 39.2 °F 35.0 °F 30.2 °F 70% 30.47 in 10.0 mi NW 5.8 mph - N/A   Clear
7:55 PM 37.4 °F 32.1 °F 30.2 °F 75% 30.47 in 10.0 mi NW 6.9 mph - N/A   Clear
8:15 PM 39.2 °F 34.2 °F 28.4 °F 65% 30.48 in 10.0 mi NW 6.9 mph - N/A   Clear
8:35 PM 39.2 °F 33.6 °F 28.4 °F 65% 30.48 in 10.0 mi NNW 8.1 mph - N/A   Clear
8:55 PM 37.4 °F 31.4 °F 28.4 °F 70% 30.48 in 10.0 mi NNW 8.1 mph - N/A   Clear
9:15 PM 39.2 °F 33.6 °F 28.4 °F 65% 30.48 in 10.0 mi NNW 8.1 mph - N/A   Clear
9:35 PM 37.4 °F 30.8 °F 28.4 °F 70% 30.48 in 10.0 mi NNW 9.2 mph - N/A   Clear
9:55 PM 39.2 °F 32.5 °F 26.6 °F 61% 30.48 in 10.0 mi NNW 10.4 mph - N/A   Clear
10:15 PM 39.2 °F 32.5 °F 26.6 °F 61% 30.48 in 10.0 mi NNW 10.4 mph - N/A   Clear
10:55 PM 39.2 °F 32.0 °F 24.8 °F 56% 30.48 in 10.0 mi NNW 11.5 mph - N/A   Clear
11:15 PM 39.2 °F 32.5 °F 24.8 °F 56% 30.48 in 10.0 mi NW 10.4 mph - N/A   Clear
11:35 PM 39.2 °F 32.5 °F 24.8 °F 56% 30.48 in 10.0 mi NNW 10.4 mph - N/A   Clear
11:55 PM 37.4 °F 30.3 °F 24.8 °F 60% 30.48 in 10.0 mi NNW 10.4 mph - N/A   Clear